Location: Newark
(25.0000°N, 73.5000°E)
Time: 15:02:32
(UTC+00:00)

Envisat - Visible Passes

Search period start: 20 June 2021 00:00
Search period end: 30 June 2021 00:00
Orbit: 764 x 766 km, 98.1° (Epoch: 19 June)

Date Brightness Start Highest point End Pass type
(mag) Time Alt. Az. Time Alt. Az. Time Alt. Az.
21 Jun 5.0 23:38:57 10° NE 23:43:19 28° E 23:47:39 10° SSE visible
22 Jun 6.0 23:05:24 10° E 23:06:19 10° E 23:07:13 10° ESE visible
24 Jun 5.4 23:27:58 10° NE 23:31:48 22° E 23:35:38 10° SSE visible
27 Jun 5.6 23:17:11 10° ENE 23:20:17 16° E 23:23:21 10° SE visible
29 Jun 4.9 23:41:15 10° NE 23:45:44 31° E 23:50:12 10° SSE visible
